Estación meteorológica de Els Cortals - St. Hilari Sacalm (La Selva, Guilleries)

Consulta los datos en tiempo real de la estación meteorológica de Els Cortals - St. Hilari Sacalm





Hora UTC 14:25
Temperatura 29.9 ºC
Humedad 47.0 %
Presión 1013.0 hPa
Pluja 0.0 mm
Velocidad viento 0.0 km/h
Dirección viento ENE

Datos diarios 2026-09-06



Hora UTC (invierno +1h; verano +2h)
Temperatura (ºC) Humedad (%) Presión (hPa) Velocidad viento (km/h) Precipitación (mm)
Hora UTC Aire Humedad Presión Vel. Dir. Vel. Max Dir. Intent. máx 5 min.
00:05 24.7 58.0 1013.9 0.0 W 0.0 0.0
00:10 24.8 58.0 1013.8 0.0 W 0.0 0.0
00:15 24.9 58.0 1013.7 0.0 WSW 0.0 0.0
00:20 24.9 58.0 1013.8 0.0 WNW 0.0 0.0
00:25 24.9 58.0 1013.7 0.0 WSW 0.0 0.0
00:30 24.9 58.0 1013.7 0.0 W 0.0 0.0
00:35 24.8 58.0 1013.7 0.0 W 0.0 0.0
00:40 24.8 58.0 1013.7 0.0 WSW 0.0 0.0
00:45 24.7 58.0 1013.7 0.0 W 0.0 0.0
00:50 24.8 58.0 1013.6 0.0 W 0.0 0.0
00:55 24.9 57.0 1013.7 0.0 W 0.0 0.0
01:00 24.9 57.0 1013.7 0.0 W 0.0 0.0
01:05 24.9 57.0 1013.7 0.0 W 0.0 0.0
01:10 24.9 57.0 1013.7 0.0 W 0.0 0.0
01:15 24.9 57.0 1013.8 0.0 W 0.0 0.0
01:20 24.8 57.0 1013.7 0.0 W 0.0 0.0
01:25 24.9 57.0 1013.6 0.0 W 0.0 0.0
01:30 24.8 57.0 1013.7 0.0 W 0.0 0.0
01:35 24.9 55.0 1013.7 0.0 W 0.0 0.0
01:40 25.0 54.0 1013.7 0.0 W 0.0 0.0
01:45 25.1 52.0 1013.7 0.0 W 0.0 0.0
01:50 25.1 52.0 1013.7 0.0 WSW 0.0 0.0
01:55 25.1 50.0 1013.7 0.0 W 0.0 0.0
02:00 25.2 50.0 1013.6 0.0 W 0.0 0.0
02:05 25.3 50.0 1013.6 0.0 W 0.0 0.0
02:10 25.3 50.0 1013.6 0.0 NW 0.0 0.0
02:15 25.4 51.0 1013.6 0.0 WSW 0.0 0.0
02:20 25.6 50.0 1013.5 0.0 W 0.0 0.0
02:25 25.7 50.0 1013.4 0.0 W 0.0 0.0
02:30 25.8 50.0 1013.5 0.0 WSW 0.0 0.0
02:35 25.8 50.0 1013.4 0.0 W 0.0 0.0
02:40 25.8 50.0 1013.4 0.0 WSW 0.0 0.0
02:45 25.7 50.0 1013.4 0.0 W 1.6 0.0
02:50 25.7 50.0 1013.5 0.0 WSW 8.0 0.0
02:55 25.7 49.0 1013.3 0.0 WSW 8.0 0.0
03:00 25.8 48.0 1013.4 0.0 WSW 0.0 0.0
03:05 25.9 48.0 1013.5 0.0 WSW 0.0 0.0
03:10 25.9 48.0 1013.4 0.0 WSW 0.0 0.0
03:15 25.9 48.0 1013.4 0.0 WSW 0.0 0.0
03:20 25.9 49.0 1013.3 0.0 W 0.0 0.0
03:25 25.9 48.0 1013.3 0.0 WSW 0.0 0.0
03:30 25.9 47.0 1013.3 0.0 W 0.0 0.0
03:35 26.1 46.0 1013.3 0.0 W 0.0 0.0
03:40 26.3 44.0 1013.1 0.0 WSW 0.0 0.0
03:45 26.5 42.0 1013.0 0.0 WSW 0.0 0.0
03:50 26.6 42.0 1013.0 0.0 W 0.0 0.0
03:55 26.7 41.0 1013.1 0.0 W 0.0 0.0
04:00 26.7 41.0 1013.0 0.0 W 0.0 0.0
04:05 26.7 41.0 1013.0 0.0 W 0.0 0.0
04:10 26.7 41.0 1012.9 0.0 W 0.0 0.0
04:15 26.7 42.0 1012.9 0.0 W 0.0 0.0
04:20 26.6 43.0 1012.9 0.0 W 0.0 0.0
04:25 26.6 44.0 1012.9 0.0 W 0.0 0.0
04:30 26.4 45.0 1012.8 0.0 WSW 0.0 0.0
04:35 26.3 46.0 1012.9 0.0 W 0.0 0.0
04:40 26.2 46.0 1012.8 0.0 W 0.0 0.0
04:45 26.2 46.0 1012.7 0.0 W 0.0 0.0
04:50 26.2 47.0 1012.7 0.0 WSW 0.0 0.0
04:55 26.1 48.0 1012.7 0.0 WSW 0.0 0.0
05:00 25.9 49.0 1012.7 0.0 WSW 0.0 0.0
05:05 25.8 49.0 1012.7 0.0 WSW 0.0 0.0
05:10 25.6 49.0 1012.8 0.0 WSW 0.0 0.0
05:15 25.4 50.0 1012.8 0.0 W 0.0 0.0
05:20 25.3 50.0 1012.7 0.0 W 0.0 0.0
05:25 25.2 50.0 1012.7 0.0 WSW 0.0 0.0
05:30 25.0 51.0 1012.8 0.0 W 0.0 0.0
05:35 24.7 51.0 1013.0 0.0 W 0.0 0.0
05:40 24.3 52.0 1013.1 0.0 W 0.0 0.0
05:45 24.1 53.0 1013.2 0.0 W 0.0 0.0
05:50 23.9 53.0 1013.2 0.0 W 0.0 0.0
05:55 23.9 54.0 1013.2 0.0 W 0.0 0.0
06:00 23.9 54.0 1013.2 0.0 W 0.0 0.0
06:05 24.1 54.0 1013.2 0.0 WSW 0.0 0.0
06:10 24.2 53.0 1013.2 0.0 WSW 0.0 0.0
06:15 24.6 52.0 1013.3 0.0 WSW 0.0 0.0
06:20 25.0 51.0 1013.3 0.0 WSW 0.0 0.0
06:25 25.3 51.0 1013.3 0.0 WSW 0.0 0.0
06:30 25.6 50.0 1013.3 0.0 WSW 0.0 0.0
06:35 25.9 49.0 1013.2 0.0 WSW 0.0 0.0
06:40 26.1 48.0 1013.2 0.0 WSW 0.0 0.0
06:45 26.3 48.0 1013.2 0.0 WSW 0.0 0.0
06:50 26.4 48.0 1013.3 0.0 WNW 0.0 0.0
06:55 26.7 47.0 1013.4 0.0 WNW 0.0 0.0
07:00 26.8 47.0 1013.5 0.0 W 0.0 0.0
07:05 27.1 46.0 1013.5 0.0 W 0.0 0.0
07:10 27.3 45.0 1013.5 0.0 W 0.0 0.0
07:15 27.5 45.0 1013.7 0.0 NW 0.0 0.0
07:20 27.7 45.0 1013.5 0.0 SSW 0.0 0.0
07:25 27.9 44.0 1013.5 0.0 W 0.0 0.0
07:30 28.2 43.0 1013.7 0.0 W 0.0 0.0
07:35 28.3 43.0 1013.5 0.0 WNW 0.0 0.0
07:40 28.5 42.0 1013.4 0.0 WSW 0.0 0.0
07:45 28.7 42.0 1013.5 0.0 W 0.0 0.0
07:50 29.0 40.0 1013.6 0.0 NNW 0.0 0.0
07:55 29.3 39.0 1013.6 0.0 WNW 0.0 0.0
08:00 29.6 38.0 1013.7 0.0 SE 0.0 0.0
08:05 29.8 37.0 1013.8 0.0 WSW 0.0 0.0
08:10 30.0 36.0 1013.8 0.0 SW 0.0 0.0
08:15 30.1 35.0 1013.6 0.0 WNW 0.0 0.0
08:20 30.2 33.0 1013.6 0.0 W 0.0 0.0
08:25 30.4 33.0 1013.6 0.0 WNW 0.0 0.0
08:30 30.6 33.0 1013.9 0.0 S 0.0 0.0
08:35 30.8 35.0 1013.9 0.0 SSW 0.0 0.0
08:40 30.9 35.0 1013.9 0.0 SSW 0.0 0.0
08:45 31.0 43.0 1013.8 0.0 NNE 0.0 0.0
08:50 30.6 45.0 1014.0 0.0 ESE 0.0 0.0
08:55 30.1 46.0 1013.9 0.0 ENE 0.0 0.0
09:00 29.8 46.0 1014.0 0.0 ESE 0.0 0.0
09:05 29.6 46.0 1014.1 0.0 E 0.0 0.0
09:10 29.5 46.0 1014.1 0.0 ESE 0.0 0.0
09:15 29.6 47.0 1014.0 0.0 E 0.0 0.0
09:20 29.6 46.0 1014.0 0.0 E 0.0 0.0
09:25 29.6 47.0 1013.9 0.0 ESE 0.0 0.0
09:30 29.5 47.0 1013.8 0.0 E 0.0 0.0
09:35 29.4 47.0 1013.9 0.0 E 0.0 0.0
09:40 29.4 47.0 1013.9 0.0 E 0.0 0.0
09:45 29.3 47.0 1013.7 0.0 ESE 0.0 0.0
09:50 29.2 48.0 1013.9 0.0 ESE 0.0 0.0
09:55 29.3 48.0 1013.9 0.0 E 0.0 0.0
10:00 29.3 48.0 1014.0 0.0 NE 0.0 0.0
10:05 29.3 48.0 1014.1 0.0 ESE 0.0 0.0
10:10 29.6 47.0 1014.0 0.0 NE 0.0 0.0
10:15 29.7 47.0 1014.0 0.0 E 0.0 0.0
10:20 29.6 48.0 1014.1 0.0 E 0.0 0.0
10:25 29.6 47.0 1014.0 0.0 E 0.0 0.0
10:30 29.8 47.0 1013.9 0.0 SSE 0.0 0.0
10:35 30.0 47.0 1013.9 0.0 SSE 0.0 0.0
10:40 30.2 46.0 1013.8 0.0 SSE 0.0 0.0
10:45 30.2 46.0 1013.8 0.0 SSE 0.0 0.0
10:50 30.3 46.0 1013.8 0.0 E 0.0 0.0
10:55 30.4 46.0 1013.7 0.0 ENE 0.0 0.0
11:00 30.6 45.0 1013.8 0.0 ESE 0.0 0.0
11:05 30.8 45.0 1013.7 0.0 SE 0.0 0.0
11:10 31.0 44.0 1013.8 0.0 SE 0.0 0.0
11:15 31.1 44.0 1013.8 0.0 SE 0.0 0.0
11:20 31.1 44.0 1013.6 0.0 ESE 0.0 0.0
11:25 31.1 44.0 1013.6 0.0 ESE 0.0 0.0
11:30 31.1 44.0 1013.7 0.0 NE 0.0 0.0
11:35 31.0 44.0 1013.5 0.0 SE 0.0 0.0
11:40 30.9 44.0 1013.6 0.0 ENE 0.0 0.0
11:45 31.1 43.0 1013.6 0.0 E 0.0 0.0
11:50 31.1 44.0 1013.7 0.0 ESE 0.0 0.0
11:55 30.9 44.0 1013.6 0.0 SSE 0.0 0.0
12:00 30.8 45.0 1013.6 0.0 ESE 0.0 0.0
12:05 30.7 44.0 1013.7 0.0 S 0.0 0.0
12:10 30.9 44.0 1013.6 0.0 ESE 0.0 0.0
12:15 31.0 44.0 1013.6 0.0 SE 0.0 0.0
12:20 30.9 44.0 1013.5 0.0 ESE 0.0 0.0
12:25 30.9 44.0 1013.5 0.0 ESE 0.0 0.0
12:30 30.9 44.0 1013.4 0.0 E 0.0 0.0
12:35 30.9 44.0 1013.3 0.0 WNW 0.0 0.0
12:40 30.9 44.0 1013.3 0.0 SSE 0.0 0.0
12:45 31.1 44.0 1013.3 0.0 E 0.0 0.0
12:50 31.1 44.0 1013.3 0.0 E 0.0 0.0
12:55 30.6 45.0 1013.1 0.0 NE 0.0 0.0
13:00 30.4 46.0 1013.2 0.0 E 0.0 0.0
13:05 30.3 46.0 1013.2 0.0 E 0.0 0.0
13:10 30.2 46.0 1013.1 0.0 ENE 0.0 0.0
13:15 30.2 46.0 1013.1 0.0 ENE 0.0 0.0
13:20 30.3 46.0 1013.0 0.0 ENE 0.0 0.0
13:25 30.3 47.0 1013.2 0.0 E 0.0 0.0
13:30 30.3 46.0 1013.3 0.0 NE 0.0 0.0
13:35 30.3 46.0 1013.2 0.0 E 0.0 0.0
13:40 30.1 47.0 1013.2 0.0 ENE 0.0 0.0
13:45 29.9 47.0 1013.2 0.0 E 0.0 0.0
13:50 29.8 48.0 1013.1 0.0 ESE 0.0 0.0
13:55 29.8 47.0 1013.2 0.0 E 0.0 0.0
14:00 29.9 47.0 1013.2 0.0 SE 0.0 0.0
14:05 29.9 47.0 1013.2 0.0 ENE 0.0 0.0
14:10 30.0 47.0 1012.9 0.0 SE 0.0 0.0
14:15 30.1 47.0 1013.0 0.0 E 0.0 0.0
14:20 30.1 48.0 1013.0 0.0 NE 0.0 0.0
14:25 29.9 47.0 1013.0 0.0 ENE 0.0 0.0
Máxima 31.1 58.0 1014.1 0.0 ENE 8.0 0.0
Mínima 20 33.0 1012.7
Total 0.0